Location: *
(53.4003°S, 165.3236°W)
Time: 02:57:18
(UTC+00:00)

Okean 1 Rocket - Pass Details

Date: 11 December 2023
Orbit: 603 x 632 km, 82.5° (Epoch: 24 February)

Event Time Altitude Azimuth Distance (km) Brightness Sun altitude
Exits shadow 13:05:06 11° 327° (NNW) 1,945 4.9 -8.5°
Maximum altitude 13:09:14 47° 253° (WSW) 847 3.7 -8.2°
Drops below altitude 10° 13:13:34 10° 178° (S) 2,020 6.7 -7.9°
Sets 13:15:53 0° 172° (S) 2,929 7.9 -7.7°
